Retour au catalogue

STARLINK-5649

ActifCommunicationsVLEO
NORAD 55354·PAYLOAD·🇺🇸 United States

Lancé Jan 26, 2023 depuis Cape Canaveral Space Force Station

Loading…

Prochains Passages (prochaines 24 heures)

TLE

FraisSource: CelesTrak SupGP

Époque: Sep 14, 2026, 13:51 UTC

1 55354C 23013Z   26257.57756944  .00047075  00000+0  17051-2 0  2575
2 55354  43.0012 316.4181 0002025 278.2767 106.1162 15.27552963    19

Suivez STARLINK-5649 en temps réel avec AllMySat

Download on the App Store